Location: Clermont
(50.2608°N, 4.3172°E)
Time: 06:27:38
(UTC+00:00)

Cosmos 1354 Rocket - Pass Details

Date: 13 August 2020
Orbit: 765 x 782 km, 74.0° (Epoch: 23 September)

Event Time Altitude Azimuth Distance (km) Brightness Sun altitude
Exits shadow 23:33:46 66° 235° (SW) 854 4.0 -25.4°
Maximum altitude 23:34:27 78° 295° (WNW) 807 4.0 -25.4°
Drops below altitude 10° 23:39:48 10° 22° (NNE) 2,348 7.4 -25.4°
Sets 23:42:12 0° 24° (NNE) 3,279 8.3 -25.4°
